Weather History for Lufkin, TX

Change the Weather History Date:

Sunday, December 16, 2012

  Actual Average Record
Temperature  
Mean Temperature 63 °F 50 °F  
Max Temperature 69 °F 61 °F 82 °F (1924)
Min Temperature 57 °F 39 °F 15 °F (1955)
Degree Days  
Heating Degree Days 2 16  
Month to date heating degree days 113 226  
Since 1 July heating degree days 396 533  
Cooling Degree Days 0 0  
Month to date cooling degree days 40 4  
Year to date cooling degree days 3211 2587  
Growing Degree Days 13 (Base 50)    
Moisture  
Dew Point 62 °F    
Average Humidity 89    
Maximum Humidity 97    
Minimum Humidity 81    
Precipitation  
Precipitation 0.44 in 0.15 in 2.34 in (1994)
Month to date precipitation 1.85 2.38  
Year to date precipitation 40.57 46.89  
Snow  
Snow 0.00 in - - ()
Month to date snowfall 0.0  
Since 1 July snowfall 0.0  
Snow Depth 0.00 in    
Sea Level Pressure  
Sea Level Pressure 29.80 in    
Wind  
Wind Speed 3 mph (South)    
Max Wind Speed 18 mph    
Max Gust Speed 22 mph    
Visibility 4 miles    
Events Fog , Rain    
T = Trace of Precipitation, MM = Missing Value Source: NWS Daily Summary

Daily Weather History Graph

Daily Weather History Graph

Search for Another Location

Airport:

Trip Planner

Search our weather history database for the weather conditions in past years. The results will help you decide how hot, cold, wet, or windy it might be!

Date:

Astronomy

Dec. 16, 2012 Rise Set
Actual Time 7:11 AM CST 5:18 PM CST
Civil Twilight 6:44 AM CST 5:45 PM CST
Nautical Twilight 6:14 AM CST 6:15 PM CST
Astronomical Twilight 5:44 AM CST 6:45 PM CST
Moon 9:56 AM CST (12/16) 9:21 PM CST (12/16)
Length of Visible Light 11h 01m
Length of Day
10h 07m
Waxing Crescent, 16% of the Moon is Illuminated
Dec 16
Waxing Crescent
Dec 19
First Quarter
Dec 28
Full
Jan 4
Last Quarter
Jan 11
New

Hourly Weather History & Observations

Time (CST) Temp. Dew Point Humidity Pressure Visibility Wind Dir Wind Speed Gust Speed Precip Events Conditions
12:18 AM 68.0 °F 64.4 °F 88% 29.86 in 2.5 mi Calm Calm - N/A   Overcast
12:25 AM 68.0 °F 64.4 °F 88% 29.86 in 3.0 mi Calm Calm - N/A   Mostly Cloudy
12:53 AM 68.0 °F 64.9 °F 90% 29.83 in 2.0 mi SE 4.6 mph - N/A   Overcast
1:27 AM 68.0 °F 64.4 °F 88% 29.85 in 4.0 mi Calm Calm - N/A   Overcast
1:51 AM 68.0 °F 64.4 °F 88% 29.84 in 0.8 mi Calm Calm - N/A   Overcast
1:53 AM 68.0 °F 64.9 °F 90% 29.84 in 0.8 mi Calm Calm - N/A   Overcast
2:30 AM 68.0 °F 64.4 °F 88% 29.83 in 1.2 mi Calm Calm - N/A   Overcast
2:41 AM 68.0 °F 64.4 °F 88% 29.84 in 0.8 mi Calm Calm - N/A   Overcast
2:49 AM 68.0 °F 66.2 °F 94% 29.84 in 1.0 mi Calm Calm - N/A   Overcast
2:53 AM 68.0 °F 66.0 °F 93% 29.83 in 0.8 mi Calm Calm - N/A   Overcast
3:11 AM 68.0 °F 64.4 °F 88% 29.83 in 0.8 mi Calm Calm - N/A   Overcast
3:32 AM 68.0 °F 64.4 °F 88% 29.82 in 0.5 mi Calm Calm - N/A Fog Fog
3:39 AM 66.2 °F 64.4 °F 94% 29.81 in 0.5 mi Calm Calm - N/A Fog Fog
3:53 AM 66.9 °F 64.9 °F 93% 29.79 in 0.5 mi ESE 4.6 mph - N/A Fog Fog
4:07 AM 68.0 °F 64.4 °F 88% 29.81 in 1.5 mi SE 3.5 mph - N/A   Overcast
4:25 AM 68.0 °F 64.4 °F 88% 29.82 in 1.0 mi Calm Calm - N/A   Overcast
4:51 AM 66.2 °F 64.4 °F 94% 29.82 in 0.8 mi Calm Calm - N/A   Overcast
4:53 AM 66.9 °F 64.9 °F 93% 29.81 in 0.8 mi Calm Calm - N/A   Overcast
5:30 AM 66.2 °F 64.4 °F 94% 29.82 in 0.2 mi SE 3.5 mph - N/A Fog Fog
5:48 AM 68.0 °F 64.4 °F 88% 29.82 in 2.0 mi Calm Calm - N/A   Overcast
5:53 AM 68.0 °F 64.9 °F 90% 29.82 in 3.0 mi Calm Calm - N/A   Overcast
5:59 AM 68.0 °F 64.4 °F 88% 29.83 in 2.5 mi Calm Calm - N/A   Overcast
6:22 AM 68.0 °F 64.4 °F 88% 29.81 in 1.0 mi Calm Calm - N/A   Overcast
6:53 AM 68.0 °F 64.9 °F 90% 29.77 in 0.8 mi NNE 3.5 mph - 0.00 in Rain Light Rain
7:03 AM 66.2 °F 64.4 °F 94% 29.79 in 1.0 mi SSE 15.0 mph - 0.01 in Rain Light Rain
7:07 AM 68.0 °F 64.4 °F 88% 29.76 in 0.8 mi ESE 18.4 mph - 0.03 in Rain Rain
7:16 AM 69.8 °F 66.2 °F 88% 29.75 in 2.5 mi SSE 16.1 mph 20.7 mph 0.03 in Rain Light Rain
7:44 AM 66.2 °F 62.6 °F 88% 29.83 in 10.0 mi NNW 8.1 mph - 0.03 in Rain Light Rain
7:53 AM 64.9 °F 62.1 °F 90% 29.84 in 8.0 mi Calm Calm - 0.04 in Rain Light Rain
8:19 AM 66.2 °F 62.6 °F 88% 29.87 in 1.8 mi SW 6.9 mph - 0.18 in Rain Heavy Rain
8:36 AM 66.2 °F 60.8 °F 83% 29.87 in 3.0 mi West 9.2 mph - 0.31 in Rain Rain
8:53 AM 64.9 °F 61.0 °F 87% 29.86 in 7.0 mi West 6.9 mph - 0.34 in Rain Light Rain
9:53 AM 64.0 °F 61.0 °F 90% 29.84 in 10.0 mi SSE 6.9 mph - 0.04 in Rain Light Rain
10:53 AM 64.9 °F 61.0 °F 87% 29.81 in 10.0 mi SSE 4.6 mph - 0.01 in Rain Light Rain
11:53 AM 66.0 °F 62.1 °F 87% 29.76 in 10.0 mi Calm Calm - 0.01 in Rain Light Rain
12:07 PM 66.2 °F 62.6 °F 88% 29.78 in 10.0 mi West 8.1 mph - 0.00 in   Mostly Cloudy
12:23 PM 66.2 °F 62.6 °F 88% 29.78 in 10.0 mi WSW 4.6 mph - 0.00 in Rain Light Rain
12:32 PM 66.2 °F 62.6 °F 88% 29.79 in 10.0 mi South 4.6 mph - 0.00 in   Mostly Cloudy
12:53 PM 66.0 °F 62.1 °F 87% 29.77 in 10.0 mi SSW 4.6 mph - 0.00 in   Overcast
1:02 PM 66.2 °F 62.6 °F 88% 29.78 in 10.0 mi South 5.8 mph - N/A   Overcast
1:34 PM 66.2 °F 62.6 °F 88% 29.75 in 10.0 mi SSW 6.9 mph - N/A   Overcast
1:39 PM 66.2 °F 60.8 °F 83% 29.75 in 10.0 mi South 5.8 mph - N/A   Overcast
1:53 PM 66.9 °F 61.0 °F 81% 29.75 in 10.0 mi South 8.1 mph - N/A   Overcast
2:34 PM 66.2 °F 60.8 °F 83% 29.75 in 10.0 mi SSW 6.9 mph - N/A   Overcast
2:53 PM 66.9 °F 61.0 °F 81% 29.75 in 10.0 mi South 5.8 mph - N/A   Overcast
3:13 PM 66.2 °F 60.8 °F 83% 29.75 in 10.0 mi South 6.9 mph - N/A   Mostly Cloudy
3:31 PM 66.2 °F 60.8 °F 83% 29.75 in 10.0 mi South 5.8 mph - N/A   Mostly Cloudy
3:53 PM 66.9 °F 61.0 °F 81% 29.75 in 10.0 mi South 3.5 mph - N/A   Mostly Cloudy
4:19 PM 66.2 °F 60.8 °F 83% 29.76 in 10.0 mi South 3.5 mph - N/A   Scattered Clouds
4:32 PM 66.2 °F 60.8 °F 83% 29.75 in 10.0 mi SSE 3.5 mph - N/A   Mostly Cloudy
4:53 PM 66.0 °F 61.0 °F 84% 29.74 in 10.0 mi SSE 4.6 mph - N/A   Overcast
5:48 PM 64.4 °F 60.8 °F 88% 29.76 in 10.0 mi South 3.5 mph - N/A   Overcast
5:53 PM 64.0 °F 60.1 °F 87% 29.76 in 10.0 mi South 3.5 mph - N/A   Mostly Cloudy
6:11 PM 62.6 °F 60.8 °F 94% 29.77 in 10.0 mi South 3.5 mph - N/A   Scattered Clouds
6:53 PM 62.1 °F 59.0 °F 90% 29.77 in 10.0 mi Calm Calm - N/A   Clear
7:18 PM 62.6 °F 57.2 °F 82% 29.77 in 1.8 mi Calm Calm - N/A   Clear
7:51 PM 60.8 °F 59.0 °F 94% 29.77 in 0.2 mi Calm Calm - N/A Fog Fog
7:53 PM 61.0 °F 59.0 °F 93% 29.77 in 0.2 mi Calm Calm - N/A Fog Fog
8:27 PM 57.2 °F 55.4 °F 94% 29.78 in 0.5 mi Calm Calm - N/A Fog Fog
8:35 PM 57.2 °F 55.4 °F 94% 29.78 in 0.5 mi Calm Calm - N/A Fog Fog
8:49 PM 57.2 °F 55.4 °F 94% 29.78 in 0.2 mi Calm Calm - N/A Fog Fog
9:01 PM 57.2 °F 55.4 °F 94% 29.79 in 0.5 mi Calm Calm - N/A Fog Fog
9:13 PM 57.2 °F 55.4 °F 94% 29.80 in 0.2 mi Calm Calm - N/A Fog Fog
9:26 PM 57.2 °F 55.4 °F 94% 29.80 in 1.0 mi SSE 3.5 mph - N/A   Mist
9:35 PM 59.0 °F 57.2 °F 94% 29.81 in 2.0 mi Calm Calm - N/A   Overcast
9:41 PM 60.8 °F 57.2 °F 88% 29.81 in 0.8 mi SSE 3.5 mph - N/A   Mist
9:53 PM 61.0 °F 59.0 °F 93% 29.81 in 0.8 mi Calm Calm - N/A   Overcast
10:01 PM 62.6 °F 59.0 °F 88% 29.82 in 1.8 mi South 3.5 mph - N/A   Overcast
10:07 PM 62.6 °F 59.0 °F 88% 29.81 in 3.0 mi SSE 4.6 mph - N/A   Overcast
10:19 PM 62.6 °F 59.0 °F 88% 29.82 in 2.0 mi South 3.5 mph - N/A   Overcast
10:39 PM 62.6 °F 59.0 °F 88% 29.82 in 1.2 mi Calm Calm - N/A   Overcast
10:49 PM 62.6 °F 59.0 °F 88% 29.82 in 0.5 mi Calm Calm - N/A Fog Fog
10:53 PM 62.1 °F 60.1 °F 93% 29.82 in 0.5 mi Calm Calm - N/A Fog Fog
11:05 PM 62.6 °F 59.0 °F 88% 29.82 in 0.2 mi South 3.5 mph - N/A Fog Fog
11:28 PM 62.6 °F 60.8 °F 94% 29.82 in 0.5 mi SSW 4.6 mph - N/A Fog Fog
11:53 PM 62.1 °F 60.1 °F 93% 29.81 in 0.8 mi SSW 9.2 mph - N/A   Overcast